www.pogodaiklimat.ru

Погода и климат >> Архив погоды >> Россия >> Чечня >> Гудермес


АРХИВ ПОГОДЫ в Гудермесе

Время (UTC), дата Ветер
(напр.,м/с)
 
Видим.   Явления Облачность Т
(С)
Тd
(С)
f
(%)
Тe
(С)
Тes
(С)
Комфортность P
(гПа)
Po
(гПа)
Тmin
(С)
Tmax
(С)
R
(мм)
R24
(мм)
S
(см)
12 14.08 СВ 6 20 км ясно +30.4 +7.7 24 +29 +33 жарко 1013.5 1005.0
15 14.08 В 4
{11}
20 км ясно +26.8 +9.3 33 +27 +27 жарко 1013.6 1005.0 +31.1
18 14.08 В 4 10 км ясно +20.6 +12.0 58 +23 +23 комфорт 1014.5 1005.6
21 14.08 В 2 10 км ясно +17.2 +13.1 77 +18 +18 1014.0 1005.1
00 15.08 штиль 0 10 км н/о +15.8 +12.8 82 +16 +16 1013.0 1004.1
03 15.08 СЗ 1 20 км ясно +14.9 +12.2 84 +15 +16 1012.7 1003.8 +13.8
06 15.08 В 3 20 км ясно +24.2 +17.0 64 +28 +36 душно 1011.9 1003.3
09 15.08 В 7-11
{13}
20 км ясно +29.4 +18.0 50 +34 +38 очень
душно
1010.6 1002.0
12 15.08 В 7-11
{14}
20 км ясно +29.0 +18.0 51 +33 +36 очень
душно
1009.5 1001.0
15 15.08 В 8-11
{13}
20 км ясно +26.3 +18.5 62 +31 +31 душно 1009.2 1000.7 +30.0
18 15.08 В 5
{11}
10 км 10/0
[Ac und]
+23.0 +20.3 85 +30 +30 очень
душно
1009.7 1001.1
21 15.08 В 3 10 км дымка 6/0
[Ac lent]
+22.2 +20.1 88 +28 +28 душно 1008.9 1000.3
00 16.08 штиль 0 4000 м дымка 9/9 600 м
[Sc]
+21.0 +19.6 92 +26 +26 душно 1008.4 999.7
03 16.08 штиль 0 4000 м дымка 10/10 300 м
[St]
+22.3 +19.8 86 +28 +28 душно 1008.5 999.9 +20.8
06 16.08 З 1 20 км 10/10 600 м
[Sc]
+24.0 +19.6 76 +29 +29 душно 1009.1 1000.5
09 16.08 В 2 20 км 6/6 600 м
[Cu med, cong]
+27.8 +19.4 60 +33 +40 очень
душно
1008.3 999.8
12 16.08 В 4 20 км ясно +32.1 +20.2 49 +38 +45 очень
душно
1005.3 997.0
15 16.08 В 5
{10}
20 км ясно +27.9 +18.9 58 +33 +33 очень
душно
1004.3 995.9 +32.6
18 16.08 СВ 2 10 км ясно +23.4 +18.7 75 +30 +30 очень
душно
1006.7 998.1
21 16.08 В 1 50 км 8/0
[Ac lent Ci fib]
+21.7 +19.1 85 +27 +27 душно 1006.0 997.4
00 17.08 З 2 4000 м дымка 6/0
[Ci]
+21.3 +19.0 87 +26 +26 душно 1006.3 997.6
03 17.08 В 2 20 км дымка 8/0
[Ac lent Ci fib]
+22.1 +19.5 85 +28 +28 душно 1005.7 997.1 +21.0
06 17.08 СЗ 1 20 км 9/5 600 м
[Cb cap Ac inh]
+25.0 +19.8 73 +31 +33 очень
душно
1007.5 998.9
09 17.08 С 2 20 км 8/0
[Ac cast]
+30.5 +20.3 55 +37 +45 очень
душно
1006.9 998.5
12 17.08 СВ 2 20 км 8/3 600 м
[Cb cap Ac inh]
+31.5 +20.1 51 +38 +41 очень
душно
1006.6 998.2
15 17.08 В 3 20 км 9/5 600 м
[Cb cap Ac inh]
+30.8 +18.4 48 +36 +36 очень
душно
1006.7 998.3 +32.5
18 17.08 ЮВ 1 10 км 9/6 600 м
[Cb cap Ac inh]
+26.5 +17.7 58 +31 +31 душно 1009.2 1000.7
21 17.08 ЮЗ 4 10 км {гроза} 9/4 600 м
[Cb cap Ac inh]
+25.5 +21.3 78 +32 +32 очень
душно
1009.5 1000.9
00 18.08 СВ 3 10 км {гроза} 9/5 600 м
[Cb cap Ac inh]
+24.7 +21.0 80 +31 +31 очень
душно
1008.5 999.9
03 18.08 В 3 10 км 9/5 600 м
[Cb cap Ac inh]
+22.0 +18.0 78 +27 +27 душно 1006.2 997.6 +22.0
06 18.08 З 2 20 км 3/3 1000 м
[Sc diur, vesp]
+26.7 +17.9 59 +31 +38 душно 1006.7 998.2
09 18.08 З 4 20 км 8/5 1000 м
[Sc Ac cast]
+29.6 +20.6 58 +36 +40 очень
душно
1006.4 998.0
12 18.08 З 3 20 км 9/5 600 м
[Cb cap Ac inh]
+28.8 +20.2 60 +35 +37 очень
душно
1006.3 997.9
15 18.08 З 2 20 км 9/9 1000 м
[Sc]
+29.0 +21.0 62 +36 +36 очень
душно
1006.8 998.4 +31.7
18 18.08 ЮЗ 4 10 км 3/3 600 м
[Sc]
+27.8 +20.4 64 +34 +34 очень
душно
1009.2 1000.6
21 18.08 З 2 10 км 5/0
[Ac trans]
+26.0 +20.2 70 +32 +32 очень
душно
1010.1 1001.5
00 19.08 ЮЗ 3 10 км 9/0
[Cs]
+25.8 +19.9 70 +32 +32 очень
душно
1010.7 1002.1
03 19.08 З 2 20 км 8/0
[Cc]
+24.2 +20.0 77 +30 +30 очень
душно
1012.2 1003.6 +23.7
06 19.08 СЗ 3 20 км 6/0
[Ac cast]
+30.1 +20.6 57 +37 +42 очень
душно
1013.0 1004.5
09 19.08 С 2 20 км 8/8 600 м
[Cu med, cong]
+32.3 +19.8 48 +38 +42 очень
душно
1012.7 1004.3
12 19.08 СЗ 2 20 км 8/4 600 м
[Cb cap Ac inh]
+33.4 +19.9 45 +39 +42 очень
душно
1012.4 1004.0
15 19.08 В 3 20 км 8/0
[Ac inh Ci fib]
+31.8 +15.4 37 +34 +34 душно 1012.8 1004.4 +33.9
18 19.08 В 1 10 км ясно +26.5 +17.3 57 +31 +31 душно 1014.5 1005.9
21 19.08 СЗ 1 10 км ясно +23.9 +17.9 69 +28 +28 душно 1014.5 1005.8
00 20.08 В 1 10 км ясно +23.3 +18.4 74 +29 +29 душно 1014.4 1005.7
03 20.08 СЗ 1 20 км ясно +22.1 +18.7 81 +27 +28 душно 1015.0 1006.3 +21.5
06 20.08 З 4 20 км ясно +29.6 +21.1 60 +37 +43 очень
душно
1015.1 1006.6
09 20.08 СВ 3 20 км ясно +34.3 +20.3 44 +41 +54 опасность
перегрева
1014.3 1005.9
12 20.08 В 4 20 км ясно +35.8 +14.5 28 +37 +43 душно 1012.8 1004.5
15 20.08 В 4 20 км 8/0
[Cs]
+30.9 +16.4 42 +34 +34 душно 1013.2 1004.7 +36.8
18 20.08 В 3 10 км ясно +25.6 +18.7 66 +31 +31 очень
душно
1014.5 1005.9
21 20.08 В 1 10 км 3/0
[Ac lent]
+22.9 +19.3 80 +29 +29 очень
душно
1013.6 1004.9
00 21.08 СВ 1 4000 м дымка ясно +21.4 +19.8 91 +26 +26 душно 1014.1 1005.4
03 21.08 штиль 0 4000 м дымка ясно +21.7 +20.0 90 +27 +28 душно 1014.1 1005.4 +20.9
06 21.08 СВ 2 20 км ясно +28.2 +20.2 62 +35 +44 очень
душно
1013.9 1005.4

 

Местоположение метеостанции Гудермес (Чечня, Россия): широта 43.35 долгота 46.12 высота над уровнем моря 75 м.

В архиве по умолчанию представлена погода в Гудермесе за последнюю неделю. Архивные данные за месяц целиком и за предыдущие месяцы, начиная с января 2011 года, Вы можете получить, выбрав интересующий диапазон дат из раскрывающегося списка и нажав кнопку "Ввод!".


*Определитесь, кто Вы:
робот инопланетянин человек

Внимание! Время в таблицах - всемирное. Для получения местного времени необходимо прибавить поправку, которая равна 3 ч.

Смотрите также архив погоды в соседних городах и на ближайших метеорологических станциях:

Погода в Шелковской (Чечня, Россия) (28 км)
Погода в Грозном (Чечня, Россия) (34 км)
Погода в Хасавюрте (Дагестан, Россия) (39 км)
Погода в Бабаюрте (Дагестан, Россия) (60 км)
Погода в Шатое (Чечня, Россия) (63 км)
Погода в Кизляре (Дагестан, Россия) (72 км)
Погода в Наурской (Чечня, Россия) (73 км)
Погода в Терекли-Мектебе (Дагестан, Россия) (89 км)
Погода в Хунзахе (Дагестан, Россия) (99 км)
Погода в Буйнакске (Дагестан, Россия) (100 км)

Пояснения к столбцам:

Ветер - указаны скорость ветра в м/с - средняя за 10 мин, порывы в срок и между сроками (в фигурных скобках) и направление, откуда дует ветер: С - северный, СВ - северо-восточный, В - восточный, ЮВ - юго-восточный, Ю - южный, ЮЗ - юго-западный, З - западный, СЗ - северо-западный.
Видимость - горизонтальная дальность видимости в метрах или километрах. При видимости от 1 до 10 км при отсутствии осадков обычно наблюдается дымка, при ухудшении видимости до 1 км и менее - туман. В сухую погоду видимость может ухудшаться дымом, пылью или мглою.
Явления - указаны атмосферные явления, наблюдавшиеся в срок или в последний час перед сроком; фигурными скобками обозначены явления, наблюдавшиеся между сроками (за 1-3 часа до срока); квадратными скобками обозначены град или гололедные отложения с указанием их диаметра в мм.
Облачность - указаны через наклонную черту общая и нижняя облачность в баллах и высота нижней границы облаков в метрах; квадратными скобками обозначены формы облаков: Ci - перистые, Cs - перисто-слоистые, Cc - перисто-кучевые, Ac - высококучевые, As - высокослоистые, Sc - слоисто-кучевые, Ns - слоисто-дождевые, Cu - кучевые, Cb - кучево-дождевые. Подробнее классификацию облаков см. в Атласе облаков (PDF).
T - Температура воздуха - температура, измеренная на высоте 2 м над землей.
Td - Температура точки росы - температура, при понижении до которой содержащийся в воздухе водяной пар достигнет насыщения.
f - Относительная влажность воздуха - влажноcть воздуха, измеренная на высоте 2 м над землей.
Te - Эффективная температура - температура, которую ощущает одетый по сезону человек в тени. Характеристика душности погоды. При расчете учитывается влияние влажности воздуха и скорости ветра на теплоощущения человека.
Tes - Эффективная температура на солнце - температура, которую ощущает человек, с поправкой на солнечный нагрев. Характеристика знойности погоды. Зависит от высоты солнца над горизонтом, облачности и скорости ветра. Ночью, в пасмурную погоду, а также при ветре 12 м/с и более поправка равна нулю.
P - Атмосферное давление - приведенное к уровню моря атмосферное давление.
Po - Атмосферное давление - измеренное на уровне метеостанции атмосферное давление.
Tmin - Минимальная температура - минимум температуры воздуха на высоте 2 м над землей.
Tmax - Максимальная температура - максимум температуры воздуха на высоте 2 м над землей.
R - Количество осадков - Количество выпавших осадков за период времени, мм. При наведении курсора мыши на число - период времени, за который выпало указанное количество осадков.
R24 - Количество осадков - Количество выпавших осадков за 24 часа, мм.
S - Снежный покров - Высота снежного покрова, см. При наведении курсора мыши на число - состояние снежного покрова и степень покрытия местности в баллах.